Location: Stockholm
(59.3293°N, 18.0686°E)
Time: 22:17:21

ISS - Visible Passes

Search period start: 20 March 2018 00:00
Search period end: 30 March 2018 01:00
Orbit: 403 x 406 km, 51.6° (Epoch: 21 March)

Date Brightness Start Highest point End Pass type
(mag) Time Alt. Az. Time Alt. Az. Time Alt. Az.
27 Mar -1.7 21:23:14 10° SSW 21:24:21 15° S 21:24:21 15° S visible
28 Mar -1.8 20:31:35 10° SSW 20:33:28 14° SSE 20:34:28 13° SE visible
28 Mar -1.3 22:06:35 10° SW 22:07:08 13° SW 22:07:08 13° SW visible
29 Mar -2.3 21:14:32 10° SW 21:17:03 20° S 21:17:07 20° S visible
